LA9VKA-13 Weather Reports


time (UTC)temp
C
wind
direction
speed
KPH
gust
KPH
rain 1hr
cm
rain 24hr
cm
rain mn
cm
humidity
%
barometer
mb
20260502214837 9 0.0 0.0 0.00 0.00 0.00 85 1003.6
20260502214341 9 0.0 0.0 0.00 0.00 0.00 84 1003.7
20260502213841 9 0.0 0.0 0.00 0.00 0.00 84 1003.6
20260502213336 9 0.0 0.0 0.00 0.00 0.00 85 1003.9
20260502212840 9 0.0 0.0 0.00 0.00 0.00 85 1003.7
20260502212338 9 0.0 0.0 0.00 0.00 0.00 85 1003.7
20260502211844 9 0.0 0.0 0.00 0.00 0.00 84 1003.7
20260502211341 9 0.0 0.0 0.00 0.00 0.00 84 1003.8
20260502210844 9 0.0 0.0 0.00 0.00 0.00 84 1003.9
20260502210338 9 0.0 0.0 0.00 0.00 0.00 84 1004.0
20260502205838 9 0.0 0.0 0.00 0.00 0.00 84 1003.9
20260502205345 9 0.0 0.0 0.00 0.00 0.00 83 1004.0
20260502204839 9 0.0 0.0 0.00 0.00 0.00 83 1003.9
20260502204342 9 0.0 0.0 0.00 0.00 0.00 83 1003.9
20260502203839 9 0.0 0.0 0.00 0.00 0.00 83 1003.9
20260502203340 10 0.0 0.0 0.00 0.00 0.00 83 1003.8
20260502202842 10 0.0 0.0 0.00 0.00 0.00 82 1004.0
20260502202338 10 0.0 0.0 0.00 0.00 0.00 82 1003.8
20260502201838 10 0.0 0.0 0.00 0.00 0.00 82 1003.9
20260502201342 10 0.0 0.0 0.00 0.00 0.00 82 1003.7
20260502200839 10 0.0 0.0 0.00 0.00 0.00 82 1003.7
20260502200342 10 0.0 0.0 0.00 0.00 0.00 82 1003.8
20260502195839 10 0.0 0.0 0.00 0.00 0.00 82 1003.8
20260502195344 10 0.0 0.0 0.00 0.00 0.00 82 1003.7
20260502194840 10 0.0 0.0 0.00 0.00 0.00 82 1004.0
20260502194339 10 0.0 0.0 0.00 0.00 0.00 81 1004.1
20260502193839 10 0.0 0.0 0.00 0.00 0.00 81 1004.2
20260502193339 10 0.0 0.0 0.00 0.00 0.00 81 1004.5
20260502192838 10 0.0 0.0 0.00 0.00 0.00 80 1004.5
20260502192341 10 0.0 0.0 0.00 0.00 0.00 80 1004.4
20260502191839 10 0.0 0.0 0.00 0.00 0.00 80 1004.4
20260502191342 10 0.0 0.0 0.00 0.00 0.00 80 1004.5
20260502190842 10 0.0 0.0 0.00 0.00 0.00 80 1004.4
20260502190339 10 0.0 0.0 0.00 0.00 0.00 80 1004.4
20260502185841 10 0.0 0.0 0.00 0.00 0.00 79 1004.4
20260502185341 10 0.0 0.0 0.00 0.00 0.00 79 1004.5
20260502184844 11 0.0 0.0 0.00 0.00 0.00 79 1004.5
20260502184338 11 0.0 0.0 0.00 0.00 0.00 79 1004.6
20260502183839 11 0.0 0.0 0.00 0.00 0.00 79 1004.5
20260502183340 11 0.0 0.0 0.00 0.00 0.00 79 1004.4
20260502182842 11 0.0 0.0 0.00 0.00 0.00 79 1004.3
20260502182343 11 0.0 0.0 0.00 0.00 0.00 79 1004.2
20260502181839 11 0.0 0.0 0.00 0.00 0.00 79 1004.0
20260502181340 11 0.0 0.0 0.00 0.00 0.00 78 1003.9
20260502180840 11 0.0 0.0 0.00 0.00 0.00 78 1003.7
20260502180342 11 0.0 0.0 0.00 0.00 0.00 77 1003.8
20260502170338 11 0.0 0.0 0.00 0.00 0.00 72 1004.3
20260502164342 12 0.0 0.0 0.00 0.00 0.00 70 1004.5
20260502163847 12 0.0 0.0 0.00 0.00 0.00 70 1004.4
20260502163342 12 0.0 0.0 0.00 0.00 0.00 69 1004.3
20260502162840 12 0.0 0.0 0.00 0.00 0.00 69 1004.5
20260502162342 12 0.0 0.0 0.00 0.00 0.00 68 1004.5
20260502161840 12 0.0 0.0 0.00 0.00 0.00 68 1004.5
20260502161339 12 0.0 0.0 0.00 0.00 0.00 68 1004.4
20260502160843 12 0.0 0.0 0.00 0.00 0.00 67 1004.7
20260502160340 12 0.0 0.0 0.00 0.00 0.00 67 1004.8
20260502151840 13 0.0 0.0 0.00 0.00 0.00 67 1004.9
20260502151340 13 0.0 0.0 0.00 0.00 0.00 67 1004.8
20260502150840 13 0.0 0.0 0.00 0.00 0.00 67 1004.8
20260502150340 13 0.0 0.0 0.00 0.00 0.00 66 1004.6
20260502130347 16 0.0 0.0 0.00 0.00 0.00 60 1005.9
20260502123340 16 0.0 0.0 0.00 0.00 0.00 58 1006.0
20260502122510 17 0.0 0.0 0.00 0.00 0.00 57 1006.1
20260502121839 17 0.0 0.0 0.00 0.00 0.00 57 1006.2
20260502121344 17 0.0 0.0 0.00 0.00 0.00 58 1006.3
20260502120839 18 0.0 0.0 0.00 0.00 0.00 58 1006.1
20260502120341 17 0.0 0.0 0.00 0.00 0.00 57 1006.2
20260502115844 17 0.0 0.0 0.00 0.00 0.00 56 1006.3
20260502115346 17 0.0 0.0 0.00 0.00 0.00 56 1006.3
20260502114839 17 0.0 0.0 0.00 0.00 0.00 56 1006.4
20260502114340 18 0.0 0.0 0.00 0.00 0.00 56 1006.4
20260502113841 18 0.0 0.0 0.00 0.00 0.00 56 1006.4
20260502113345 18 0.0 0.0 0.00 0.00 0.00 56 1006.5
20260502112512 18 0.0 0.0 0.00 0.00 0.00 56 1006.5
20260502111841 18 0.0 0.0 0.00 0.00 0.00 57 1006.5
20260502111339 18 0.0 0.0 0.00 0.00 0.00 57 1006.7
20260502110841 18 0.0 0.0 0.00 0.00 0.00 57 1006.7
20260502110340 18 0.0 0.0 0.00 0.00 0.00 57 1006.7
20260502105842 18 0.0 0.0 0.00 0.00 0.00 57 1006.7
20260502105345 18 0.0 0.0 0.00 0.00 0.00 56 1006.8
20260502104840 17 0.0 0.0 0.00 0.00 0.00 56 1006.9
20260502104340 17 0.0 0.0 0.00 0.00 0.00 55 1006.9
20260502103844 17 0.0 0.0 0.00 0.00 0.00 55 1006.9
20260502103341 17 0.0 0.0 0.00 0.00 0.00 54 1006.9
20260502102840 18 0.0 0.0 0.00 0.00 0.00 55 1007.0
20260502102339 18 0.0 0.0 0.00 0.00 0.00 55 1007.0
20260502101841 17 0.0 0.0 0.00 0.00 0.00 54 1007.0
20260502101341 17 0.0 0.0 0.00 0.00 0.00 54 1007.1
20260502100841 17 0.0 0.0 0.00 0.00 0.00 54 1006.9
20260502100342 17 0.0 0.0 0.00 0.00 0.00 55 1007.0
20260502091339 17 0.0 0.0 0.00 0.00 0.00 52 1007.4
20260502090839 16 0.0 0.0 0.00 0.00 0.00 52 1007.4
20260502090341 16 0.0 0.0 0.00 0.00 0.00 52 1007.5
20260502071342 15 0.0 0.0 0.00 0.00 0.00 61 1008.6
20260502070842 14 0.0 0.0 0.00 0.00 0.00 61 1008.6
20260502070341 14 0.0 0.0 0.00 0.00 0.00 63 1008.7
20260502065840 13 0.0 0.0 0.00 0.00 0.00 63 1008.8
20260502065339 13 0.0 0.0 0.00 0.00 0.00 64 1008.7
20260502064838 13 0.0 0.0 0.00 0.00 0.00 66 1008.8
20260502064341 12 0.0 0.0 0.00 0.00 0.00 66 1008.7
20260502063840 12 0.0 0.0 0.00 0.00 0.00 67 1008.7
20260502063342 12 0.0 0.0 0.00 0.00 0.00 68 1008.7
20260502062840 11 0.0 0.0 0.00 0.00 0.00 68 1008.7
20260502062343 11 0.0 0.0 0.00 0.00 0.00 69 1008.8
20260502061841 11 0.0 0.0 0.00 0.00 0.00 70 1008.8
20260502061340 11 0.0 0.0 0.00 0.00 0.00 70 1008.9
20260502060840 11 0.0 0.0 0.00 0.00 0.00 71 1008.9
20260502060341 11 0.0 0.0 0.00 0.00 0.00 72 1009.0
20260502055845 10 0.0 0.0 0.00 0.00 0.00 73 1009.0
20260502055345 10 0.0 0.0 0.00 0.00 0.00 74 1009.0
20260502054847 10 0.0 0.0 0.00 0.00 0.00 75 1009.0
20260502054342 10 0.0 0.0 0.00 0.00 0.00 76 1009.1
20260502053838 10 0.0 0.0 0.00 0.00 0.00 76 1009.1
20260502053339 9 0.0 0.0 0.00 0.00 0.00 77 1009.1
20260502052842 9 0.0 0.0 0.00 0.00 0.00 78 1009.2
20260502052340 9 0.0 0.0 0.00 0.00 0.00 78 1009.3
20260502051839 9 0.0 0.0 0.00 0.00 0.00 79 1009.4
20260502051343 8 0.0 0.0 0.00 0.00 0.00 79 1009.4
20260502050841 8 0.0 0.0 0.00 0.00 0.00 79 1009.4
20260502050338 8 0.0 0.0 0.00 0.00 0.00 79 1009.5
20260502045841 8 0.0 0.0 0.00 0.00 0.00 79 1009.6
20260502045341 8 0.0 0.0 0.00 0.00 0.00 79 1009.8
20260502044839 8 0.0 0.0 0.00 0.00 0.00 78 1009.9
20260502044339 8 0.0 0.0 0.00 0.00 0.00 78 1009.8
20260502043837 8 0.0 0.0 0.00 0.00 0.00 78 1009.8
20260502043338 7 0.0 0.0 0.00 0.00 0.00 78 1009.9
20260502042841 7 0.0 0.0 0.00 0.00 0.00 77 1009.7
20260502042341 7 0.0 0.0 0.00 0.00 0.00 77 1009.7
20260502041841 6 0.0 0.0 0.00 0.00 0.00 77 1009.8
20260502041336 6 0.0 0.0 0.00 0.00 0.00 76 1009.9
20260502040837 6 0.0 0.0 0.00 0.00 0.00 76 1009.9
20260502040342 6 0.0 0.0 0.00 0.00 0.00 76 1010.0
20260502035841 6 0.0 0.0 0.00 0.00 0.00 76 1010.0
20260502035339 6 0.0 0.0 0.00 0.00 0.00 75 1009.9
20260502034842 7 0.0 0.0 0.00 0.00 0.00 75 1010.2
20260502034345 7 0.0 0.0 0.00 0.00 0.00 75 1010.1
20260502033840 7 0.0 0.0 0.00 0.00 0.00 75 1010.2
20260502033341 7 0.0 0.0 0.00 0.00 0.00 75 1010.3
20260502032839 7 0.0 0.0 0.00 0.00 0.00 75 1010.4
20260502032346 7 0.0 0.0 0.00 0.00 0.00 75 1010.4
20260502031841 7 0.0 0.0 0.00 0.00 0.00 75 1010.4
20260502031348 7 0.0 0.0 0.00 0.00 0.00 75 1010.3
20260502030844 7 0.0 0.0 0.00 0.00 0.00 75 1010.4
20260502030343 7 0.0 0.0 0.00 0.00 0.00 74 1010.4
20260502025842 7 0.0 0.0 0.00 0.00 0.00 74 1010.6
20260502025340 7 0.0 0.0 0.00 0.00 0.00 74 1010.5
20260502024845 7 0.0 0.0 0.00 0.00 0.00 73 1010.7
20260502024342 7 0.0 0.0 0.00 0.00 0.00 73 1010.7
20260502023843 8 0.0 0.0 0.00 0.00 0.00 73 1010.7
20260502023342 8 0.0 0.0 0.00 0.00 0.00 73 1010.8
20260502022841 8 0.0 0.0 0.00 0.00 0.00 73 1010.8
20260502022340 8 0.0 0.0 0.00 0.00 0.00 73 1010.9
20260502021838 8 0.0 0.0 0.00 0.00 0.00 73 1011.0
20260502021345 8 0.0 0.0 0.00 0.00 0.00 73 1011.1
20260502020847 8 0.0 0.0 0.00 0.00 0.00 73 1011.1
20260502020341 8 0.0 0.0 0.00 0.00 0.00 74 1011.1
20260502015838 8 0.0 0.0 0.00 0.00 0.00 74 1011.2
20260502015344 8 0.0 0.0 0.00 0.00 0.00 74 1011.3
20260502014839 8 0.0 0.0 0.00 0.00 0.00 74 1011.3
20260502014340 8 0.0 0.0 0.00 0.00 0.00 74 1011.4
20260502013838 8 0.0 0.0 0.00 0.00 0.00 74 1011.4
20260502013340 8 0.0 0.0 0.00 0.00 0.00 74 1011.4
20260502012845 8 0.0 0.0 0.00 0.00 0.00 74 1011.5
20260502012339 8 0.0 0.0 0.00 0.00 0.00 74 1011.5
20260502011839 8 0.0 0.0 0.00 0.00 0.00 74 1011.5
20260502011345 8 0.0 0.0 0.00 0.00 0.00 75 1011.5
20260502010846 8 0.0 0.0 0.00 0.00 0.00 75 1011.7
20260502010339 8 0.0 0.0 0.00 0.00 0.00 75 1011.8
20260502005841 8 0.0 0.0 0.00 0.00 0.00 75 1011.9
20260502005338 8 0.0 0.0 0.00 0.00 0.00 75 1011.9
20260502004839 8 0.0 0.0 0.00 0.00 0.00 75 1012.0
20260502004345 8 0.0 0.0 0.00 0.00 0.00 75 1012.0
20260502003839 8 0.0 0.0 0.00 0.00 0.00 74 1012.0
20260502003342 8 0.0 0.0 0.00 0.00 0.00 74 1012.0
20260502002840 8 0.0 0.0 0.00 0.00 0.00 74 1012.0
20260502002342 8 0.0 0.0 0.00 0.00 0.00 74 1012.2
20260502001841 8 0.0 0.0 0.00 0.00 0.00 74 1012.3
20260502001339 8 0.0 0.0 0.00 0.00 0.00 74 1012.2
20260502000840 9 0.0 0.0 0.00 0.00 0.00 74 1012.2
20260502000340 9 0.0 0.0 0.00 0.00 0.00 74 1012.3
20260501235839 9 0.0 0.0 0.00 0.00 0.00 74 1012.2
20260501235342 9 0.0 0.0 0.00 0.00 0.00 74 1012.4
20260501234839 9 0.0 0.0 0.00 0.00 0.00 74 1012.3
20260501234339 9 0.0 0.0 0.00 0.00 0.00 74 1012.3
20260501233838 9 0.0 0.0 0.00 0.00 0.00 74 1012.3
20260501233341 9 0.0 0.0 0.00 0.00 0.00 74 1012.3
20260501232841 9 0.0 0.0 0.00 0.00 0.00 73 1012.3
20260501232339 9 0.0 0.0 0.00 0.00 0.00 73 1012.6
20260501231839 9 0.0 0.0 0.00 0.00 0.00 73 1012.6
20260501231339 9 0.0 0.0 0.00 0.00 0.00 73 1012.5
20260501230844 9 0.0 0.0 0.00 0.00 0.00 73 1012.6
20260501230341 9 0.0 0.0 0.00 0.00 0.00 73 1012.7
20260501225841 9 0.0 0.0 0.00 0.00 0.00 73 1012.8
20260501225340 9 0.0 0.0 0.00 0.00 0.00 73 1012.7
20260501224841 10 0.0 0.0 0.00 0.00 0.00 72 1012.8
20260501224339 9 0.0 0.0 0.00 0.00 0.00 72 1012.8
20260501223839 10 0.0 0.0 0.00 0.00 0.00 72 1012.9
20260501223341 10 0.0 0.0 0.00 0.00 0.00 71 1013.0
20260501222843 10 0.0 0.0 0.00 0.00 0.00 71 1013.0
20260501222341 10 0.0 0.0 0.00 0.00 0.00 71 1012.9
20260501221838 10 0.0 0.0 0.00 0.00 0.00 71 1012.9
20260501221340 10 0.0 0.0 0.00 0.00 0.00 70 1013.0
20260501220842 10 0.0 0.0 0.00 0.00 0.00 70 1013.0
20260501220338 10 0.0 0.0 0.00 0.00 0.00 69 1013.0
20260501215340 10 0.0 0.0 0.00 0.00 0.00 69 1013.1